Athens, OH

12:19 AM EST on December 15, 2019 (GMT -0500)
Ohio University

Weather History for KUNI - November, 2019

Change the Weather History Date:

Friday, November 22, 2019

  Actual Average (KPKB) Record (KPKB)
Temperature  
Mean Temperature 42 °F -  
Max Temperature 56 °F 50 °F 76 °F (1934)
Min Temperature 27 °F 35 °F 14 °F (2000)
Degree Days  
Heating Degree Days 24    
Moisture  
Dew Point 38 °F    
Average Humidity 84    
Maximum Humidity 100    
Minimum Humidity 61    
Precipitation  
Precipitation 0.17 in - - ()
Sea Level Pressure  
Sea Level Pressure 30.04 in    
Wind  
Wind Speed 8 mph (WNW)    
Max Wind Speed 16 mph    
Max Gust Speed 24 mph    
Visibility 10 miles    
Events Rain    
Averages and records for this station are not official NWS values.
T = Trace of Precipitation, MM = Missing Value Source: NWS Daily Summary

Daily Weather History Graph

Daily Weather History Graph

Search for Another Location

Airport or City:

Astronomy

Nov. 22, 2019 Rise Set
Actual Time 7:19 AM EST 5:09 PM EST
Civil Twilight 6:50 AM EST 5:39 PM EST
Nautical Twilight 6:17 AM EST 6:11 PM EST
Astronomical Twilight 5:45 AM EST 6:43 PM EST
Moon 2:26 AM EST (11/22) 3:07 PM EST (11/22)
Length of Visible Light 10h 48m
Length of Day
9h 50m
Waning Crescent, 20% of the Moon is Illuminated
Nov 22
Waning Crescent
Nov 26
New
Dec 4
First Quarter
Dec 12
Full
Dec 18
Last Quarter

Hourly Weather History & Observations

Time (EST) Temp. Windchill Dew Point Humidity Pressure Visibility Wind Dir Wind Speed Gust Speed Precip Events Conditions
12:15 AM 56.3 °F - 42.8 °F 61% 29.96 in 10.0 mi SW 10.4 mph 18.4 mph N/A   Overcast
12:35 AM 56.3 °F - 42.8 °F 61% 29.96 in 10.0 mi SW 9.2 mph 17.3 mph N/A   Overcast
12:55 AM 55.9 °F - 43.9 °F 64% 29.94 in 10.0 mi SW 10.4 mph 17.3 mph N/A   Overcast
1:15 AM 56.3 °F - 44.6 °F 65% 29.94 in 10.0 mi SW 13.8 mph 24.2 mph N/A   Overcast
1:35 AM 56.1 °F - 44.6 °F 65% 29.94 in 10.0 mi SW 16.1 mph 21.9 mph N/A   Overcast
1:55 AM 55.9 °F - 44.8 °F 66% 29.92 in 10.0 mi WSW 13.8 mph - N/A   Overcast
2:15 AM 55.9 °F - 45.0 °F 67% 29.93 in 10.0 mi WSW 12.7 mph 19.6 mph N/A   Overcast
2:35 AM 55.8 °F - 44.6 °F 66% 29.93 in 10.0 mi WSW 12.7 mph 19.6 mph N/A   Overcast
2:55 AM 55.8 °F - 44.2 °F 65% 29.92 in 10.0 mi SW 8.1 mph - N/A   Overcast
3:15 AM 55.8 °F - 44.6 °F 66% 29.92 in 10.0 mi SW 9.2 mph - N/A   Overcast
3:55 AM 55.6 °F - 45.0 °F 67% 29.91 in 10.0 mi WSW 12.7 mph - N/A   Overcast
4:15 AM 53.4 °F - 46.9 °F 79% 29.91 in 10.0 mi WSW 8.1 mph 12.7 mph N/A Rain Rain
4:35 AM 52.2 °F - 47.7 °F 85% 29.90 in 10.0 mi SW 8.1 mph - 0.02 in Rain Light Rain
4:55 AM 51.1 °F - 49.1 °F 93% 29.91 in 10.0 mi SW 6.9 mph - 0.04 in Rain Light Rain
5:15 AM 50.9 °F - 50.9 °F 100% 29.91 in 10.0 mi SW 5.8 mph - 0.01 in Rain Light Rain
5:35 AM 50.9 °F - 50.9 °F 100% 29.92 in 10.0 mi SW 12.7 mph 17.3 mph 0.01 in   Light Drizzle
5:55 AM 50.9 °F - 50.9 °F 100% 29.92 in 7.0 mi SW 11.5 mph - 0.02 in Rain Light Rain
6:15 AM 50.7 °F - 50.7 °F 100% 29.94 in 7.0 mi WSW 11.5 mph - 0.01 in Rain Light Rain
6:35 AM 50.2 °F - 50.2 °F 100% 29.94 in 5.0 mi WNW 9.2 mph - 0.03 in Rain Rain
6:55 AM 48.4 °F - 48.4 °F 100% 29.97 in 10.0 mi NW 11.5 mph 18.4 mph 0.05 in Rain Light Rain
7:15 AM 46.2 °F 40.8 °F 46.2 °F 100% 29.97 in 10.0 mi WNW 11.5 mph - 0.01 in Rain Light Rain
7:35 AM 45.5 °F 41.3 °F 45.5 °F 100% 29.99 in 10.0 mi WNW 8.1 mph 16.1 mph 0.03 in Rain Light Rain
7:55 AM 45.0 °F 40.1 °F 45.0 °F 100% 29.99 in 10.0 mi NW 9.2 mph - 0.04 in Rain Light Rain
8:15 AM 44.2 °F 41.8 °F 44.2 °F 100% 30.01 in 10.0 mi WNW 4.6 mph - 0.01 in Rain Rain
8:35 AM 43.9 °F 39.3 °F 43.9 °F 100% 30.02 in 10.0 mi WNW 8.1 mph - 0.01 in   Light Drizzle
8:55 AM 43.7 °F 39.7 °F 43.7 °F 100% 30.03 in 3.0 mi NW 6.9 mph - 0.02 in Rain Rain
9:15 AM 43.3 °F 40.7 °F 43.3 °F 100% 30.04 in 4.0 mi NW 4.6 mph - N/A Rain Rain
9:35 AM 43.3 °F 36.8 °F 43.3 °F 100% 30.06 in 10.0 mi NNW 12.7 mph 19.6 mph N/A Rain Light Rain
9:55 AM 42.3 °F 36.3 °F 42.3 °F 100% 30.06 in 10.0 mi NNW 10.4 mph 17.3 mph N/A   Overcast
10:15 AM 41.9 °F 37.5 °F 41.4 °F 98% 30.08 in 10.0 mi NW 6.9 mph - N/A   Overcast
10:35 AM 41.9 °F 38.2 °F 40.6 °F 95% 30.08 in 10.0 mi NNW 5.8 mph - N/A   Overcast
10:55 AM 42.1 °F 36.1 °F 41.0 °F 96% 30.09 in 10.0 mi NNW 10.4 mph - N/A   Overcast
11:15 AM 42.6 °F 36.8 °F 39.2 °F 88% 30.09 in 10.0 mi NW 10.4 mph 17.3 mph N/A   Overcast
11:35 AM 42.8 °F 38.0 °F 37.2 °F 81% 30.08 in 10.0 mi NNW 8.1 mph - N/A   Overcast
11:55 AM 42.1 °F 36.1 °F 36.7 °F 81% 30.09 in 10.0 mi NNW 10.4 mph - N/A   Overcast
12:15 PM 42.8 °F 38.6 °F 36.5 °F 78% 30.08 in 10.0 mi NNW 6.9 mph - N/A   Overcast
12:35 PM 43.2 °F 39.0 °F 35.2 °F 74% 30.07 in 10.0 mi North 6.9 mph - N/A   Mostly Cloudy
12:55 PM 43.7 °F 41.1 °F 35.1 °F 72% 30.06 in 10.0 mi NW 4.6 mph - N/A   Scattered Clouds
1:15 PM 45.3 °F 42.3 °F 36.3 °F 71% 30.04 in 10.0 mi WNW 5.8 mph - N/A   Scattered Clouds
1:35 PM 44.6 °F 41.4 °F 34.0 °F 66% 30.05 in 10.0 mi WNW 5.8 mph - N/A   Scattered Clouds
1:55 PM 45.1 °F 43.7 °F 34.0 °F 65% 30.05 in 10.0 mi NW 3.5 mph - N/A   Scattered Clouds
2:15 PM 46.4 °F 44.3 °F 34.2 °F 62% 30.05 in 10.0 mi NNW 4.6 mph - N/A   Clear
2:35 PM 45.9 °F 41.7 °F 34.2 °F 64% 30.06 in 10.0 mi West 8.1 mph - N/A   Clear
2:55 PM 45.0 °F 41.2 °F 33.8 °F 65% 30.06 in 10.0 mi WNW 6.9 mph - N/A   Clear
3:15 PM 45.0 °F 41.2 °F 34.3 °F 66% 30.07 in 10.0 mi WNW 6.9 mph - N/A   Scattered Clouds
3:35 PM 44.8 °F 42.4 °F 33.3 °F 64% 30.08 in 10.0 mi WNW 4.6 mph - N/A   Overcast
3:55 PM 44.6 °F 41.4 °F 33.3 °F 64% 30.09 in 10.0 mi NNW 5.8 mph - N/A   Mostly Cloudy
4:15 PM 44.6 °F 43.1 °F 33.3 °F 64% 30.09 in 10.0 mi NNW 3.5 mph - N/A   Mostly Cloudy
4:35 PM 43.9 °F 39.9 °F 32.9 °F 65% 30.08 in 10.0 mi North 6.9 mph - N/A   Overcast
4:55 PM 42.8 °F 41.1 °F 32.9 °F 68% 30.09 in 10.0 mi North 3.5 mph - N/A   Overcast
5:35 PM 41.4 °F 37.6 °F 32.5 °F 71% 30.11 in 10.0 mi North 5.8 mph - N/A   Overcast
5:55 PM 39.6 °F - 32.4 °F 75% 30.12 in 10.0 mi Calm Calm - N/A   Mostly Cloudy
6:15 PM 37.6 °F - 32.0 °F 80% 30.12 in 10.0 mi Calm Calm - N/A   Clear
6:35 PM 35.6 °F - 31.8 °F 86% 30.12 in 10.0 mi Calm Calm - N/A   Clear
6:55 PM 33.8 °F - 31.8 °F 92% 30.12 in 10.0 mi Calm Calm - N/A   Clear
7:15 PM 33.4 °F - 31.5 °F 92% 30.12 in 10.0 mi Calm Calm - N/A   Clear
7:35 PM 31.6 °F - 31.5 °F 99% 30.13 in 10.0 mi Calm Calm - N/A   Clear
7:55 PM 31.1 °F - 31.1 °F 100% 30.13 in 10.0 mi Calm Calm - N/A   Clear
8:15 PM 30.9 °F - 30.9 °F 100% 30.13 in 10.0 mi Calm Calm - N/A   Clear
8:35 PM 30.7 °F - 30.7 °F 100% 30.13 in 10.0 mi Calm Calm - N/A   Clear
8:55 PM 30.0 °F - 30.0 °F 100% 30.13 in 10.0 mi Calm Calm - N/A   Clear
9:15 PM 30.2 °F - 30.2 °F 100% 30.13 in 10.0 mi Calm Calm - N/A   Clear
9:35 PM 29.3 °F - 29.3 °F 100% 30.12 in 10.0 mi Calm Calm - N/A   Clear
9:55 PM 28.6 °F - 28.6 °F 100% 30.12 in 10.0 mi Calm Calm - N/A   Clear
10:15 PM 28.2 °F - 28.2 °F 100% 30.12 in 10.0 mi Calm Calm - N/A   Clear
10:35 PM 28.2 °F - 28.2 °F 100% 30.12 in 10.0 mi Calm Calm - N/A   Clear
10:55 PM 27.5 °F - 27.5 °F 100% 30.11 in 10.0 mi Calm Calm - N/A   Clear
11:15 PM 28.4 °F - 28.4 °F 100% 30.11 in 4.0 mi Calm Calm - N/A   Clear
11:35 PM 27.1 °F - 27.1 °F 100% 30.11 in 10.0 mi Calm Calm - N/A   Clear
11:55 PM 27.3 °F - 27.3 °F 100% 30.09 in 10.0 mi Calm Calm - N/A   Clear